| time (UTC) | temp C | wind direction | speed KPH | gust KPH | rain 1hr cm | rain 24hr cm | rain mn cm | humidity % | barometer mb |
| 20260901044537 | 17 | 0 | 0.0 | 0.0 | 0.00 | 0.00 | 0.00 | 96 | 1014.6 |
| 20260901044018 | 17 | 0 | 0.0 | 0.0 | 0.00 | 0.00 | 0.00 | 95 | 1014.6 |
| 20260901043518 | 17 | 0 | 0.0 | 0.0 | 0.00 | 0.00 | 0.00 | 94 | 1014.6 |
| 20260901043040 | 17 | 0 | 0.0 | 0.0 | 0.00 | 0.00 | 0.00 | 96 | 1014.5 |
| 20260901042519 | 17 | 0 | 0.0 | 0.0 | 0.00 | 0.00 | 0.00 | 95 | 1014.5 |
| 20260901042017 | 17 | 0 | 0.0 | 0.0 | 0.00 | 0.00 | 0.00 | 94 | 1014.5 |
| 20260901041551 | 17 | 0 | 0.0 | 0.0 | 0.00 | 0.00 | 0.00 | 95 | 1014.6 |
| 20260901041021 | 17 | 0 | 0.0 | 0.0 | 0.00 | 0.00 | 0.00 | 95 | 1014.6 |
| 20260901040520 | 17 | 0 | 0.0 | 0.0 | 0.00 | 0.00 | 0.00 | 95 | 1014.6 |
| 20260901040036 | 17 | 0 | 0.0 | 0.0 | 0.00 | 0.00 | 0.00 | 95 | 1014.6 |
| 20260901035520 | 17 | 0 | 0.0 | 0.0 | 0.00 | 0.00 | 0.00 | 95 | 1014.5 |
| 20260901035019 | 17 | 0 | 0.0 | 0.0 | 0.00 | 0.00 | 0.00 | 95 | 1014.5 |
| 20260901034535 | 17 | 0 | 0.0 | 0.0 | 0.00 | 0.00 | 0.00 | 94 | 1014.5 |
| 20260901034018 | 17 | 0 | 0.0 | 0.0 | 0.00 | 0.00 | 0.00 | 94 | 1014.5 |
| 20260901033518 | 17 | 0 | 0.0 | 0.0 | 0.00 | 0.00 | 0.00 | 94 | 1014.5 |
| 20260901033036 | 18 | 0 | 0.0 | 0.0 | 0.00 | 0.00 | 0.00 | 93 | 1014.4 |
| 20260901032519 | 18 | 0 | 0.0 | 0.0 | 0.00 | 0.00 | 0.00 | 93 | 1014.5 |
| 20260901032024 | 18 | 0 | 0.0 | 0.0 | 0.00 | 0.00 | 0.00 | 92 | 1014.4 |
| 20260901031551 | 18 | 0 | 0.0 | 0.0 | 0.00 | 0.00 | 0.00 | 92 | 1014.3 |
| 20260901031016 | 18 | 0 | 0.0 | 0.0 | 0.00 | 0.00 | 0.00 | 92 | 1014.4 |
| 20260901030518 | 18 | 0 | 0.0 | 0.0 | 0.00 | 0.00 | 0.00 | 91 | 1014.4 |
| 20260901030035 | 18 | 0 | 0.0 | 0.0 | 0.00 | 0.00 | 0.00 | 89 | 1014.5 |
| 20260901025519 | 18 | 0 | 0.0 | 0.0 | 0.00 | 0.00 | 0.00 | 90 | 1014.4 |
| 20260901025025 | 18 | 0 | 0.0 | 0.0 | 0.00 | 0.00 | 0.00 | 90 | 1014.3 |
| 20260901024536 | 18 | 0 | 0.0 | 0.0 | 0.00 | 0.00 | 0.00 | 89 | 1014.3 |
| 20260901024018 | 18 | 0 | 0.0 | 0.0 | 0.00 | 0.00 | 0.00 | 88 | 1014.3 |
| 20260901023520 | 19 | 0 | 0.0 | 0.0 | 0.00 | 0.00 | 0.00 | 88 | 1014.4 |
| 20260901023039 | 19 | 0 | 0.0 | 0.0 | 0.00 | 0.00 | 0.00 | 88 | 1014.3 |
| 20260901022520 | 19 | 0 | 0.0 | 0.0 | 0.00 | 0.00 | 0.00 | 86 | 1014.3 |
| 20260901022020 | 19 | 0 | 0.0 | 0.0 | 0.00 | 0.00 | 0.00 | 86 | 1014.3 |
| 20260901021536 | 19 | 0 | 0.0 | 0.0 | 0.00 | 0.00 | 0.00 | 85 | 1014.3 |
| 20260901021021 | 19 | 0 | 0.0 | 0.0 | 0.00 | 0.00 | 0.00 | 85 | 1014.2 |
| 20260901020524 | 19 | 0 | 0.0 | 0.0 | 0.00 | 0.00 | 0.00 | 83 | 1014.2 |
| 20260901020036 | 20 | 0 | 0.0 | 0.0 | 0.00 | 0.00 | 0.00 | 83 | 1014.1 |
| 20260901015520 | 20 | 0 | 0.0 | 0.0 | 0.00 | 0.00 | 0.00 | 82 | 1014.2 |
| 20260901015024 | 20 | 0 | 0.0 | 0.0 | 0.00 | 0.00 | 0.00 | 81 | 1014.2 |
| 20260901014544 | 20 | 0 | 0.0 | 0.0 | 0.00 | 0.00 | 0.00 | 81 | 1014.2 |
| 20260901014016 | 20 | 0 | 0.0 | 0.0 | 0.00 | 0.00 | 0.00 | 80 | 1014.2 |
| 20260901013520 | 20 | 0 | 0.0 | 0.0 | 0.00 | 0.00 | 0.00 | 80 | 1014.1 |
| 20260901013035 | 21 | 0 | 0.0 | 0.0 | 0.00 | 0.00 | 0.00 | 81 | 1014.1 |
| 20260901012519 | 21 | 0 | 0.0 | 0.0 | 0.00 | 0.00 | 0.00 | 78 | 1013.9 |
| 20260901012019 | 21 | 0 | 0.0 | 0.0 | 0.00 | 0.00 | 0.00 | 76 | 1013.9 |
| 20260901011533 | 21 | 0 | 0.0 | 0.0 | 0.00 | 0.00 | 0.00 | 76 | 1013.8 |
| 20260901011023 | 21 | 0 | 0.0 | 0.0 | 0.00 | 0.00 | 0.00 | 74 | 1013.8 |
| 20260901010519 | 21 | 0 | 0.0 | 0.0 | 0.00 | 0.00 | 0.00 | 74 | 1013.7 |
| 20260901010034 | 22 | 0 | 0.0 | 0.0 | 0.00 | 0.00 | 0.00 | 73 | 1013.6 |
| 20260901005518 | 22 | 0 | 0.0 | 0.0 | 0.00 | 0.00 | 0.00 | 71 | 1013.7 |
| 20260901005019 | 22 | 0 | 0.0 | 0.0 | 0.00 | 0.00 | 0.00 | 71 | 1013.6 |
| 20260901004537 | 23 | 0 | 0.0 | 0.0 | 0.00 | 0.00 | 0.00 | 71 | 1013.5 |
| 20260901004021 | 23 | 0 | 0.0 | 0.0 | 0.00 | 0.00 | 0.00 | 67 | 1013.4 |
| 20260901003521 | 24 | 0 | 0.0 | 0.0 | 0.00 | 0.00 | 0.00 | 72 | 1013.5 |
| 20260901003035 | 24 | 0 | 0.0 | 0.0 | 0.00 | 0.00 | 0.00 | 69 | 1013.4 |
| 20260901002518 | 24 | 0 | 0.0 | 0.0 | 0.00 | 0.00 | 0.00 | 68 | 1013.4 |
| 20260901002020 | 25 | 0 | 0.0 | 0.0 | 0.00 | 0.00 | 0.00 | 68 | 1013.3 |
| 20260901001546 | 25 | 0 | 0.0 | 0.0 | 0.00 | 0.00 | 0.00 | 65 | 1013.3 |
| 20260901001021 | 25 | 0 | 0.0 | 0.0 | 0.00 | 0.00 | 0.00 | 64 | 1013.3 |
| 20260901000521 | 26 | 0 | 0.0 | 0.0 | 0.00 | 0.00 | 0.00 | 60 | 1013.1 |
| 20260901000036 | 26 | 0 | 0.0 | 0.0 | 0.00 | 0.00 | 0.00 | 66 | 1013.1 |
| 20260831235521 | 26 | 0 | 0.0 | 0.0 | 0.00 | 0.00 | 0.00 | 59 | 1013.1 |
| 20260831235019 | 26 | 0 | 0.0 | 0.0 | 0.00 | 0.00 | 0.00 | 55 | 1013.0 |
| 20260831234538 | 26 | 0 | 0.0 | 0.0 | 0.00 | 0.00 | 0.00 | 54 | 1013.1 |
| 20260831234019 | 27 | 0 | 0.0 | 1.6 | 0.00 | 0.00 | 0.00 | 54 | 1013.1 |
| 20260831233516 | 27 | 0 | 0.0 | 1.6 | 0.00 | 0.00 | 0.00 | 53 | 1013.1 |
| 20260831233037 | 27 | 0 | 0.0 | 1.6 | 0.00 | 0.00 | 0.00 | 53 | 1013.1 |
| 20260831232522 | 27 | 0 | 0.0 | 4.8 | 0.00 | 0.00 | 0.00 | 53 | 1013.1 |
| 20260831232021 | 27 | 0 | 0.0 | 4.8 | 0.00 | 0.00 | 0.00 | 55 | 1013.1 |
| 20260831231535 | 27 | 0 | 0.0 | 3.2 | 0.00 | 0.00 | 0.00 | 53 | 1013.2 |
| 20260831231020 | 28 | 349 | 0.0 | 3.2 | 0.00 | 0.00 | 0.00 | 52 | 1013.1 |
| 20260831230520 | 28 | 0 | 0.0 | 4.8 | 0.00 | 0.00 | 0.00 | 51 | 1013.1 |
| 20260831230036 | 28 | 0 | 1.6 | 6.4 | 0.00 | 0.00 | 0.00 | 50 | 1013.1 |
| 20260831225521 | 28 | 329 | 0.0 | 6.4 | 0.00 | 0.00 | 0.00 | 51 | 1013.0 |
| 20260831225019 | 28 | 0 | 0.0 | 4.8 | 0.00 | 0.00 | 0.00 | 47 | 1012.9 |
| 20260831224534 | 28 | 0 | 0.0 | 3.2 | 0.00 | 0.00 | 0.00 | 53 | 1013.0 |
| 20260831224020 | 28 | 0 | 0.0 | 4.8 | 0.00 | 0.00 | 0.00 | 50 | 1012.9 |
| 20260831223520 | 28 | 0 | 0.0 | 4.8 | 0.00 | 0.00 | 0.00 | 46 | 1013.0 |
| 20260831223033 | 28 | 0 | 0.0 | 4.8 | 0.00 | 0.00 | 0.00 | 49 | 1013.0 |
| 20260831222520 | 28 | 300 | 0.0 | 6.4 | 0.00 | 0.00 | 0.00 | 50 | 1012.9 |
| 20260831222021 | 28 | 0 | 1.6 | 9.7 | 0.00 | 0.00 | 0.00 | 53 | 1012.9 |
| 20260831221537 | 28 | 355 | 1.6 | 9.7 | 0.00 | 0.00 | 0.00 | 52 | 1012.9 |
| 20260831221019 | 28 | 0 | 0.0 | 4.8 | 0.00 | 0.00 | 0.00 | 57 | 1012.9 |
| 20260831220522 | 28 | 311 | 0.0 | 6.4 | 0.00 | 0.00 | 0.00 | 54 | 1012.8 |
| 20260831220035 | 28 | 310 | 1.6 | 6.4 | 0.00 | 0.00 | 0.00 | 57 | 1012.9 |
| 20260831215516 | 28 | 0 | 1.6 | 6.4 | 0.00 | 0.00 | 0.00 | 57 | 1012.9 |
| 20260831215020 | 28 | 349 | 0.0 | 3.2 | 0.00 | 0.00 | 0.00 | 57 | 1012.8 |
| 20260831214534 | 28 | 274 | 0.0 | 4.8 | 0.00 | 0.00 | 0.00 | 59 | 1012.9 |
| 20260831214020 | 28 | 274 | 0.0 | 4.8 | 0.00 | 0.00 | 0.00 | 57 | 1012.7 |
| 20260831213520 | 28 | 257 | 1.6 | 8.0 | 0.00 | 0.00 | 0.00 | 60 | 1012.7 |
| 20260831213034 | 28 | 269 | 0.0 | 8.0 | 0.00 | 0.00 | 0.00 | 65 | 1012.8 |
| 20260831212521 | 28 | 0 | 0.0 | 8.0 | 0.00 | 0.00 | 0.00 | 68 | 1012.7 |
| 20260831212021 | 27 | 0 | 0.0 | 6.4 | 0.00 | 0.00 | 0.00 | 70 | 1012.5 |
| 20260831211535 | 27 | 0 | 0.0 | 8.0 | 0.00 | 0.00 | 0.00 | 70 | 1012.5 |
| 20260831211017 | 27 | 233 | 0.0 | 8.0 | 0.00 | 0.00 | 0.00 | 68 | 1012.5 |
| 20260831210517 | 27 | 0 | 1.6 | 8.0 | 0.00 | 0.00 | 0.00 | 69 | 1012.5 |
| 20260831210038 | 27 | 0 | 0.0 | 8.0 | 0.00 | 0.00 | 0.00 | 70 | 1012.5 |
| 20260831205521 | 27 | 233 | 1.6 | 8.0 | 0.00 | 0.00 | 0.00 | 72 | 1012.5 |
| 20260831205020 | 27 | 0 | 1.6 | 8.0 | 0.00 | 0.00 | 0.00 | 72 | 1012.5 |
| 20260831204535 | 27 | 233 | 3.2 | 8.0 | 0.00 | 0.00 | 0.00 | 72 | 1012.5 |
| 20260831204021 | 27 | 225 | 1.6 | 8.0 | 0.00 | 0.00 | 0.00 | 73 | 1012.5 |
| 20260831203520 | 27 | 0 | 0.0 | 3.2 | 0.00 | 0.00 | 0.00 | 74 | 1012.5 |
| 20260831203035 | 27 | 0 | 0.0 | 3.2 | 0.00 | 0.00 | 0.00 | 75 | 1012.4 |
| 20260831202520 | 27 | 225 | 0.0 | 3.2 | 0.00 | 0.00 | 0.00 | 78 | 1012.5 |
| 20260831202021 | 26 | 0 | 0.0 | 8.0 | 0.00 | 0.00 | 0.00 | 77 | 1012.5 |
| 20260831201545 | 26 | 0 | 0.0 | 11.3 | 0.00 | 0.00 | 0.00 | 79 | 1012.5 |
| 20260831201021 | 26 | 225 | 4.8 | 11.3 | 0.00 | 0.00 | 0.00 | 79 | 1012.4 |
| 20260831200517 | 26 | 223 | 4.8 | 11.3 | 0.00 | 0.00 | 0.00 | 80 | 1012.5 |
| 20260831200036 | 25 | 0 | 0.0 | 6.4 | 0.00 | 0.00 | 0.00 | 83 | 1012.4 |
| 20260831195515 | 25 | 175 | 1.6 | 6.4 | 0.00 | 0.00 | 0.00 | 83 | 1012.4 |
| 20260831195020 | 25 | 0 | 0.0 | 6.4 | 0.00 | 0.00 | 0.00 | 85 | 1012.4 |
| 20260831194535 | 25 | 175 | 3.2 | 6.4 | 0.00 | 0.00 | 0.00 | 85 | 1012.5 |
| 20260831194026 | 25 | 175 | 0.0 | 8.0 | 0.00 | 0.00 | 0.00 | 86 | 1012.5 |
| 20260831193520 | 25 | 175 | 1.6 | 8.0 | 0.00 | 0.00 | 0.00 | 85 | 1012.4 |
| 20260831193032 | 25 | 175 | 3.2 | 8.0 | 0.00 | 0.00 | 0.00 | 86 | 1012.5 |
| 20260831192519 | 25 | 229 | 3.2 | 9.7 | 0.00 | 0.00 | 0.00 | 86 | 1012.5 |
| 20260831192020 | 25 | 229 | 1.6 | 9.7 | 0.00 | 0.00 | 0.00 | 86 | 1012.4 |
| 20260831191536 | 25 | 214 | 0.0 | 6.4 | 0.00 | 0.00 | 0.00 | 86 | 1012.4 |
| 20260831191016 | 25 | 214 | 0.0 | 6.4 | 0.00 | 0.00 | 0.00 | 87 | 1012.4 |
| 20260831190519 | 24 | 214 | 3.2 | 6.4 | 0.00 | 0.00 | 0.00 | 88 | 1012.5 |
| 20260831190036 | 24 | 219 | 1.6 | 9.7 | 0.00 | 0.00 | 0.00 | 87 | 1012.5 |
| 20260831185520 | 24 | 219 | 0.0 | 9.7 | 0.00 | 0.00 | 0.00 | 87 | 1012.6 |
| 20260831185023 | 24 | 0 | 0.0 | 8.0 | 0.00 | 0.00 | 0.00 | 88 | 1012.8 |
| 20260831184536 | 24 | 219 | 3.2 | 8.0 | 0.00 | 0.00 | 0.00 | 87 | 1012.8 |
| 20260831184021 | 24 | 0 | 0.0 | 6.4 | 0.00 | 0.00 | 0.00 | 88 | 1012.7 |
| 20260831183519 | 24 | 0 | 1.6 | 6.4 | 0.00 | 0.00 | 0.00 | 87 | 1012.8 |
| 20260831183035 | 24 | 219 | 0.0 | 6.4 | 0.00 | 0.00 | 0.00 | 88 | 1012.8 |
| 20260831182518 | 24 | 0 | 0.0 | 8.0 | 0.00 | 0.00 | 0.00 | 90 | 1012.7 |
| 20260831182018 | 24 | 0 | 0.0 | 8.0 | 0.00 | 0.00 | 0.00 | 89 | 1012.8 |
| 20260831181533 | 23 | 219 | 3.2 | 6.4 | 0.00 | 0.00 | 0.00 | 89 | 1012.6 |
| 20260831181020 | 23 | 219 | 0.0 | 4.8 | 0.00 | 0.00 | 0.00 | 90 | 1012.6 |
| 20260831180520 | 23 | 0 | 0.0 | 3.2 | 0.00 | 0.00 | 0.00 | 90 | 1012.6 |
| 20260831180037 | 23 | 0 | 0.0 | 8.0 | 0.00 | 0.00 | 0.00 | 91 | 1012.6 |
| 20260831175519 | 23 | 0 | 0.0 | 8.0 | 0.00 | 0.00 | 0.00 | 91 | 1012.8 |
| 20260831175019 | 23 | 219 | 3.2 | 8.0 | 0.00 | 0.00 | 0.00 | 91 | 1012.7 |
| 20260831174535 | 23 | 0 | 0.0 | 1.6 | 0.00 | 0.00 | 0.00 | 92 | 1012.6 |
| 20260831174016 | 23 | 0 | 0.0 | 4.8 | 0.00 | 0.00 | 0.00 | 92 | 1012.7 |
| 20260831173519 | 23 | 0 | 0.0 | 4.8 | 0.00 | 0.00 | 0.00 | 92 | 1012.7 |
| 20260831173034 | 23 | 219 | 0.0 | 4.8 | 0.00 | 0.00 | 0.00 | 93 | 1012.7 |
| 20260831172521 | 22 | 0 | 0.0 | 6.4 | 0.00 | 0.00 | 0.00 | 93 | 1012.8 |
| 20260831172020 | 22 | 219 | 1.6 | 8.0 | 0.00 | 0.00 | 0.00 | 93 | 1012.8 |
| 20260831171534 | 22 | 219 | 1.6 | 8.0 | 0.00 | 0.00 | 0.00 | 93 | 1012.8 |
| 20260831171019 | 22 | 167 | 3.2 | 8.0 | 0.00 | 0.00 | 0.00 | 93 | 1012.7 |
| 20260831170521 | 22 | 167 | 0.0 | 6.4 | 0.00 | 0.00 | 0.00 | 94 | 1012.7 |
| 20260831170039 | 22 | 0 | 1.6 | 6.4 | 0.00 | 0.00 | 0.00 | 94 | 1012.6 |
| 20260831165515 | 22 | 167 | 0.0 | 6.4 | 0.00 | 0.00 | 0.00 | 95 | 1012.6 |
| 20260831165019 | 22 | 167 | 0.0 | 8.0 | 0.00 | 0.00 | 0.00 | 94 | 1012.6 |
| 20260831164536 | 22 | 167 | 3.2 | 8.0 | 0.00 | 0.00 | 0.00 | 95 | 1012.6 |
| 20260831164020 | 22 | 167 | 0.0 | 6.4 | 0.00 | 0.00 | 0.00 | 95 | 1012.6 |
| 20260831163521 | 22 | 0 | 0.0 | 6.4 | 0.00 | 0.00 | 0.00 | 95 | 1012.6 |
| 20260831163035 | 22 | 0 | 3.2 | 6.4 | 0.00 | 0.00 | 0.00 | 95 | 1012.5 |
| 20260831162520 | 22 | 167 | 1.6 | 6.4 | 0.00 | 0.00 | 0.00 | 95 | 1012.5 |
| 20260831162019 | 22 | 0 | 0.0 | 4.8 | 0.00 | 0.00 | 0.00 | 95 | 1012.5 |
| 20260831161537 | 22 | 0 | 0.0 | 6.4 | 0.00 | 0.00 | 0.00 | 95 | 1012.4 |
| 20260831161018 | 22 | 0 | 1.6 | 6.4 | 0.00 | 0.00 | 0.00 | 95 | 1012.3 |
| 20260831160518 | 22 | 167 | 0.0 | 6.4 | 0.00 | 0.00 | 0.00 | 95 | 1012.3 |
| 20260831160050 | 22 | 167 | 0.0 | 6.4 | 0.00 | 0.00 | 0.00 | 95 | 1012.1 |
| 20260831155520 | 22 | 167 | 1.6 | 6.4 | 0.00 | 0.00 | 0.00 | 95 | 1012.2 |
| 20260831155023 | 22 | 0 | 0.0 | 4.8 | 0.00 | 0.00 | 0.00 | 95 | 1012.2 |
| 20260831154600 | 22 | 167 | 0.0 | 8.0 | 0.00 | 0.00 | 0.00 | 95 | 1012.3 |
| 20260831154021 | 22 | 167 | 1.6 | 8.0 | 0.00 | 0.00 | 0.00 | 95 | 1012.1 |
| 20260831153520 | 22 | 167 | 4.8 | 8.0 | 0.00 | 0.00 | 0.00 | 95 | 1012.0 |
| 20260831153034 | 22 | 167 | 1.6 | 9.7 | 0.00 | 0.00 | 0.00 | 95 | 1011.9 |
| 20260831152524 | 21 | 0 | 3.2 | 9.7 | 0.00 | 0.00 | 0.00 | 95 | 1011.8 |
| 20260831152019 | 21 | 180 | 3.2 | 9.7 | 0.00 | 0.00 | 0.00 | 95 | 1011.8 |
| 20260831151537 | 21 | 164 | 3.2 | 8.0 | 0.00 | 0.00 | 0.00 | 95 | 1011.8 |
| 20260831151016 | 21 | 164 | 1.6 | 9.7 | 0.00 | 0.00 | 0.00 | 95 | 1011.7 |
| 20260831150521 | 21 | 164 | 6.4 | 9.7 | 0.00 | 0.00 | 0.00 | 95 | 1011.7 |
| 20260831150035 | 21 | 164 | 3.2 | 9.7 | 0.00 | 0.00 | 0.00 | 95 | 1011.5 |
| 20260831145521 | 21 | 183 | 4.8 | 12.9 | 0.00 | 0.00 | 0.00 | 95 | 1011.5 |
| 20260831145023 | 21 | 184 | 4.8 | 12.9 | 0.00 | 0.00 | 0.00 | 95 | 1011.4 |
| 20260831144534 | 21 | 168 | 4.8 | 9.7 | 0.00 | 0.00 | 0.00 | 95 | 1011.4 |
| 20260831144019 | 21 | 165 | 4.8 | 8.0 | 0.00 | 0.00 | 0.00 | 95 | 1011.3 |
| 20260831143521 | 21 | 167 | 4.8 | 11.3 | 0.00 | 0.00 | 0.00 | 95 | 1011.5 |
| 20260831143040 | 21 | 167 | 4.8 | 11.3 | 0.00 | 0.00 | 0.00 | 95 | 1011.5 |
| 20260831142516 | 21 | 176 | 4.8 | 11.3 | 0.00 | 0.00 | 0.00 | 95 | 1011.6 |
| 20260831142024 | 21 | 161 | 6.4 | 11.3 | 0.00 | 0.00 | 0.00 | 95 | 1011.6 |
| 20260831141538 | 21 | 158 | 3.2 | 12.9 | 0.00 | 0.00 | 0.00 | 95 | 1011.6 |
| 20260831141019 | 21 | 189 | 6.4 | 12.9 | 0.00 | 0.00 | 0.00 | 95 | 1011.6 |
| 20260831140522 | 21 | 172 | 4.8 | 11.3 | 0.00 | 0.00 | 0.00 | 95 | 1011.6 |
| 20260831140040 | 21 | 173 | 4.8 | 9.7 | 0.00 | 0.00 | 0.00 | 95 | 1011.5 |
| 20260831135520 | 21 | 173 | 3.2 | 11.3 | 0.00 | 0.00 | 0.00 | 95 | 1011.3 |
| 20260831135018 | 21 | 173 | 4.8 | 11.3 | 0.00 | 0.00 | 0.00 | 95 | 1011.2 |
| 20260831134535 | 21 | 173 | 1.6 | 11.3 | 0.00 | 0.00 | 0.00 | 95 | 1011.3 |
| 20260831134019 | 21 | 173 | 6.4 | 11.3 | 0.00 | 0.00 | 0.00 | 95 | 1011.3 |
| 20260831133522 | 21 | 173 | 3.2 | 9.7 | 0.00 | 0.00 | 0.00 | 95 | 1011.3 |
| 20260831133034 | 21 | 173 | 3.2 | 11.3 | 0.00 | 0.00 | 0.00 | 95 | 1011.3 |
| 20260831132521 | 21 | 179 | 3.2 | 11.3 | 0.00 | 0.00 | 0.00 | 95 | 1011.4 |
| 20260831132020 | 21 | 173 | 4.8 | 11.3 | 0.00 | 0.00 | 0.00 | 95 | 1011.4 |
| 20260831131533 | 21 | 186 | 4.8 | 11.3 | 0.00 | 0.00 | 0.00 | 95 | 1011.4 |
| 20260831131025 | 21 | 175 | 4.8 | 11.3 | 0.00 | 0.00 | 0.00 | 95 | 1011.2 |
| 20260831130519 | 21 | 158 | 4.8 | 11.3 | 0.00 | 0.00 | 0.00 | 95 | 1011.1 |
| 20260831130037 | 21 | 155 | 4.8 | 11.3 | 0.00 | 0.00 | 0.00 | 96 | 1011.1 |
| 20260831125516 | 20 | 150 | 6.4 | 12.9 | 0.00 | 0.00 | 0.00 | 96 | 1011.0 |
| 20260831125019 | 20 | 159 | 8.0 | 16.1 | 0.00 | 0.00 | 0.00 | 96 | 1010.9 |
| 20260831124533 | 20 | 121 | 6.4 | 16.1 | 0.00 | 0.00 | 0.00 | 96 | 1010.9 |
| 20260831124020 | 20 | 158 | 9.7 | 16.1 | 0.00 | 0.00 | 0.00 | 95 | 1011.1 |
| 20260831123521 | 20 | 148 | 8.0 | 12.9 | 0.00 | 0.00 | 0.00 | 95 | 1011.0 |
| 20260831123033 | 21 | 148 | 4.8 | 11.3 | 0.00 | 0.00 | 0.00 | 95 | 1011.1 |
| 20260831122524 | 21 | 126 | 3.2 | 11.3 | 0.00 | 0.00 | 0.00 | 95 | 1011.1 |
| 20260831122019 | 21 | 152 | 4.8 | 12.9 | 0.00 | 0.00 | 0.00 | 95 | 1011.3 |
| 20260831121533 | 21 | 131 | 4.8 | 12.9 | 0.00 | 0.00 | 0.00 | 95 | 1011.3 |
| 20260831121019 | 21 | 128 | 6.4 | 12.9 | 0.00 | 0.00 | 0.00 | 95 | 1011.2 |
| 20260831120521 | 21 | 146 | 6.4 | 12.9 | 0.00 | 0.00 | 0.00 | 96 | 1011.2 |
| 20260831120035 | 21 | 151 | 4.8 | 12.9 | 0.00 | 0.00 | 0.00 | 96 | 1011.2 |
| 20260831115515 | 21 | 148 | 4.8 | 11.3 | 0.00 | 0.00 | 0.00 | 96 | 1011.2 |
| 20260831115015 | 21 | 154 | 6.4 | 11.3 | 0.00 | 0.00 | 0.00 | 95 | 1011.1 |
| 20260831114546 | 21 | 165 | 4.8 | 12.9 | 0.00 | 0.00 | 0.00 | 95 | 1011.1 |
| 20260831114021 | 21 | 138 | 3.2 | 12.9 | 0.00 | 0.00 | 0.00 | 95 | 1011.0 |
| 20260831113521 | 21 | 146 | 6.4 | 12.9 | 0.00 | 0.00 | 0.00 | 95 | 1010.8 |
| 20260831113037 | 21 | 141 | 6.4 | 14.5 | 0.00 | 0.00 | 0.00 | 95 | 1010.8 |
| 20260831112520 | 21 | 161 | 4.8 | 14.5 | 0.00 | 0.00 | 0.00 | 95 | 1011.1 |
| 20260831112019 | 21 | 153 | 9.7 | 14.5 | 0.00 | 0.00 | 0.00 | 95 | 1010.9 |
| 20260831111538 | 21 | 145 | 8.0 | 12.9 | 0.00 | 0.00 | 0.00 | 95 | 1010.8 |
| 20260831111022 | 21 | 135 | 8.0 | 12.9 | 0.00 | 0.00 | 0.00 | 95 | 1010.8 |
| 20260831110520 | 21 | 127 | 6.4 | 12.9 | 0.00 | 0.00 | 0.00 | 95 | 1011.1 |
| 20260831110040 | 21 | 158 | 8.0 | 12.9 | 0.00 | 0.00 | 0.00 | 95 | 1011.0 |
| 20260831105518 | 21 | 186 | 6.4 | 12.9 | 0.00 | 0.00 | 0.00 | 95 | 1010.9 |
| 20260831105022 | 21 | 146 | 6.4 | 12.9 | 0.00 | 0.00 | 0.00 | 95 | 1010.8 |
| 20260831104539 | 21 | 160 | 6.4 | 14.5 | 0.00 | 0.00 | 0.00 | 95 | 1010.9 |
| 20260831104022 | 21 | 167 | 4.8 | 14.5 | 0.00 | 0.00 | 0.00 | 95 | 1010.9 |
| 20260831103521 | 21 | 139 | 4.8 | 11.3 | 0.00 | 0.00 | 0.00 | 95 | 1011.1 |
| 20260831103039 | 21 | 157 | 4.8 | 12.9 | 0.00 | 0.00 | 0.00 | 95 | 1011.1 |
| 20260831102519 | 21 | 153 | 4.8 | 14.5 | 0.00 | 0.00 | 0.00 | 95 | 1011.0 |
| 20260831102022 | 21 | 151 | 6.4 | 17.7 | 0.00 | 0.00 | 0.00 | 95 | 1011.0 |
| 20260831101544 | 21 | 149 | 8.0 | 17.7 | 0.00 | 0.00 | 0.00 | 95 | 1010.9 |
| 20260831101019 | 21 | 132 | 6.4 | 14.5 | 0.00 | 0.00 | 0.00 | 95 | 1010.9 |
| 20260831100516 | 21 | 143 | 6.4 | 14.5 | 0.00 | 0.00 | 0.00 | 95 | 1011.1 |
| 20260831100036 | 21 | 143 | 8.0 | 14.5 | 0.00 | 0.00 | 0.00 | 95 | 1011.1 |
| 20260831095520 | 21 | 137 | 9.7 | 16.1 | 0.00 | 0.00 | 0.00 | 95 | 1011.1 |
| 20260831095025 | 21 | 144 | 8.0 | 16.1 | 0.00 | 0.00 | 0.00 | 95 | 1011.0 |
| 20260831094540 | 21 | 156 | 9.7 | 16.1 | 0.00 | 0.00 | 0.00 | 95 | 1011.1 |
| 20260831094022 | 21 | 148 | 9.7 | 16.1 | 0.00 | 0.00 | 0.00 | 95 | 1011.2 |
| 20260831093523 | 21 | 119 | 6.4 | 19.3 | 0.00 | 0.00 | 0.00 | 95 | 1011.1 |
| 20260831093038 | 21 | 144 | 9.7 | 19.3 | 0.00 | 0.00 | 0.00 | 94 | 1011.2 |
| 20260831092519 | 21 | 152 | 9.7 | 19.3 | 0.00 | 0.00 | 0.00 | 95 | 1011.2 |
| 20260831092018 | 21 | 161 | 8.0 | 19.3 | 0.00 | 0.00 | 0.00 | 95 | 1011.1 |
| 20260831091545 | 21 | 138 | 9.7 | 19.3 | 0.00 | 0.00 | 0.00 | 94 | 1011.2 |
| 20260831091019 | 21 | 161 | 8.0 | 14.5 | 0.00 | 0.00 | 0.00 | 94 | 1011.2 |
| 20260831090518 | 21 | 155 | 6.4 | 16.1 | 0.00 | 0.00 | 0.00 | 95 | 1011.4 |
| 20260831090036 | 21 | 133 | 6.4 | 16.1 | 0.00 | 0.00 | 0.00 | 94 | 1011.3 |
| 20260831085522 | 21 | 96 | 6.4 | 16.1 | 0.00 | 0.00 | 0.00 | 94 | 1011.2 |
| 20260831085020 | 21 | 135 | 8.0 | 19.3 | 0.00 | 0.00 | 0.00 | 94 | 1011.2 |
| 20260831084536 | 21 | 142 | 9.7 | 19.3 | 0.00 | 0.00 | 0.00 | 95 | 1011.2 |
| 20260831084021 | 21 | 155 | 6.4 | 14.5 | 0.00 | 0.00 | 0.00 | 95 | 1011.2 |
| 20260831083519 | 21 | 148 | 4.8 | 14.5 | 0.00 | 0.00 | 0.00 | 95 | 1011.1 |
| 20260831083035 | 21 | 159 | 6.4 | 14.5 | 0.00 | 0.00 | 0.00 | 96 | 1011.2 |
| 20260831082516 | 21 | 130 | 4.8 | 14.5 | 0.00 | 0.00 | 0.00 | 96 | 1011.1 |
| 20260831082019 | 21 | 137 | 6.4 | 14.5 | 0.00 | 0.00 | 0.00 | 96 | 1011.2 |
| 20260831081538 | 21 | 156 | 6.4 | 12.9 | 0.00 | 0.00 | 0.00 | 96 | 1011.1 |
| 20260831081018 | 21 | 128 | 6.4 | 12.9 | 0.00 | 0.00 | 0.00 | 96 | 1011.1 |
| 20260831080523 | 21 | 155 | 3.2 | 12.9 | 0.00 | 0.00 | 0.00 | 96 | 1011.2 |
| 20260831080036 | 21 | 140 | 3.2 | 12.9 | 0.00 | 0.00 | 0.00 | 96 | 1011.2 |
| 20260831075519 | 21 | 154 | 4.8 | 11.3 | 0.00 | 0.00 | 0.00 | 96 | 1011.2 |
| 20260831075020 | 21 | 130 | 3.2 | 11.3 | 0.00 | 0.00 | 0.00 | 96 | 1011.4 |
| 20260831074534 | 21 | 148 | 4.8 | 11.3 | 0.00 | 0.00 | 0.00 | 96 | 1011.5 |
| 20260831074020 | 21 | 148 | 4.8 | 11.3 | 0.00 | 0.00 | 0.00 | 96 | 1011.5 |
| 20260831073518 | 21 | 125 | 4.8 | 11.3 | 0.00 | 0.00 | 0.00 | 96 | 1011.5 |
| 20260831073035 | 21 | 154 | 4.8 | 11.3 | 0.00 | 0.00 | 0.00 | 96 | 1011.6 |
| 20260831072516 | 21 | 132 | 6.4 | 11.3 | 0.00 | 0.00 | 0.00 | 96 | 1011.6 |
| 20260831072018 | 21 | 147 | 4.8 | 11.3 | 0.00 | 0.00 | 0.00 | 97 | 1011.9 |
| 20260831071539 | 21 | 137 | 3.2 | 11.3 | 0.00 | 0.00 | 0.00 | 97 | 1011.8 |
| 20260831071021 | 21 | 132 | 4.8 | 11.3 | 0.00 | 0.00 | 0.00 | 97 | 1011.8 |
| 20260831070521 | 21 | 119 | 3.2 | 11.3 | 0.00 | 0.00 | 0.00 | 97 | 1011.9 |
| 20260831070040 | 21 | 82 | 3.2 | 11.3 | 0.00 | 0.00 | 0.00 | 97 | 1012.0 |
| 20260831065520 | 21 | 141 | 4.8 | 11.3 | 0.00 | 0.00 | 0.00 | 97 | 1012.2 |
| 20260831065022 | 21 | 157 | 1.6 | 9.7 | 0.00 | 0.00 | 0.00 | 97 | 1012.2 |
| 20260831064536 | 21 | 155 | 1.6 | 9.7 | 0.00 | 0.00 | 0.00 | 97 | 1012.2 |
| 20260831064018 | 21 | 155 | 3.2 | 9.7 | 0.00 | 0.00 | 0.00 | 97 | 1012.3 |
| 20260831063519 | 21 | 155 | 3.2 | 9.7 | 0.00 | 0.00 | 0.00 | 97 | 1012.4 |
| 20260831063037 | 21 | 157 | 3.2 | 11.3 | 0.00 | 0.00 | 0.00 | 97 | 1012.4 |
| 20260831062518 | 21 | 157 | 6.4 | 11.3 | 0.00 | 0.00 | 0.00 | 97 | 1012.4 |
| 20260831062023 | 20 | 136 | 4.8 | 9.7 | 0.00 | 0.00 | 0.00 | 97 | 1012.4 |
| 20260831061536 | 20 | 179 | 3.2 | 8.0 | 0.00 | 0.00 | 0.00 | 97 | 1012.4 |
| 20260831061021 | 20 | 136 | 1.6 | 9.7 | 0.00 | 0.00 | 0.00 | 97 | 1012.5 |
| 20260831060523 | 20 | 0 | 1.6 | 11.3 | 0.00 | 0.00 | 0.00 | 97 | 1012.5 |
| 20260831060036 | 20 | 144 | 3.2 | 12.9 | 0.00 | 0.00 | 0.00 | 97 | 1012.6 |
| 20260831055523 | 20 | 131 | 4.8 | 12.9 | 0.00 | 0.00 | 0.00 | 97 | 1012.5 |
| 20260831055024 | 20 | 159 | 6.4 | 12.9 | 0.00 | 0.00 | 0.00 | 97 | 1012.5 |
| 20260831054538 | 20 | 140 | 6.4 | 11.3 | 0.00 | 0.00 | 0.00 | 97 | 1012.7 |
| 20260831054021 | 20 | 137 | 4.8 | 11.3 | 0.00 | 0.00 | 0.00 | 96 | 1012.8 |
| 20260831053518 | 20 | 144 | 4.8 | 11.3 | 0.00 | 0.00 | 0.00 | 96 | 1013.0 |
| 20260831053036 | 20 | 144 | 1.6 | 11.3 | 0.00 | 0.00 | 0.00 | 96 | 1013.1 |
| 20260831052517 | 20 | 148 | 3.2 | 11.3 | 0.00 | 0.00 | 0.00 | 96 | 1013.1 |
| 20260831052019 | 20 | 121 | 3.2 | 12.9 | 0.00 | 0.00 | 0.00 | 96 | 1013.2 |
| 20260831051542 | 20 | 0 | 4.8 | 12.9 | 0.00 | 0.00 | 0.00 | 96 | 1013.1 |
| 20260831051018 | 20 | 130 | 3.2 | 14.5 | 0.00 | 0.00 | 0.00 | 96 | 1013.1 |
| 20260831050518 | 20 | 150 | 4.8 | 14.5 | 0.00 | 0.00 | 0.00 | 96 | 1013.2 |
| 20260831050037 | 20 | 135 | 8.0 | 20.9 | 0.00 | 0.00 | 0.00 | 96 | 1013.3 |
| 20260831045519 | 20 | 126 | 6.4 | 20.9 | 0.00 | 0.00 | 0.00 | 96 | 1013.3 |
| 20260831045016 | 20 | 119 | 11.3 | 20.9 | 0.00 | 0.00 | 0.00 | 96 | 1013.1 |